Location: Oriwa
(40.7500°S, 175.3333°E)
Time: 12:00:50
(UTC+00:00)

PAYLOAD A - Pass Details

Date: 03 February 2023
Orbit: 692 x 830 km, 98.5° (Epoch: 30 March)

Event Time Altitude Azimuth Distance (km) Brightness Sun altitude
Exits shadow 15:05:42 41° 4° (N) 1,187 4.6 -22.6°
Maximum altitude 15:07:40 80° 283° (WNW) 856 4.0 -22.4°
Drops below altitude 10° 15:13:12 10° 196° (SSW) 2,471 7.0 -21.7°
Sets 15:15:35 0° 194° (SSW) 3,409 7.8 -21.4°
